Wilmington, NC

4:14 PM EDT on September 29, 2016 (GMT -0400)
Wilmington International

Weather History for KILM - August, 2013

Change the Weather History Date:

Wednesday, August 21, 2013

  Actual Average Record
Temperature  
Mean Temperature 80 °F 79 °F  
Max Temperature 88 °F 88 °F 100 °F (1968)
Min Temperature 72 °F 71 °F 60 °F (1953)
Degree Days  
Heating Degree Days 0 0  
Month to date heating degree days 0 0  
Since 1 June heating degree days 0 2  
Since 1 July heating degree days 0 0  
Cooling Degree Days 15 14  
Month to date cooling degree days 291 319  
Year to date cooling degree days 1364 1486  
Since 1 June cooling degree days 1138 1205  
Growing Degree Days 30 (Base 50)    
Moisture  
Dew Point 73 °F    
Average Humidity 82    
Maximum Humidity 100    
Minimum Humidity 63    
Precipitation  
Precipitation 0.00 in 0.24 in 1.98 in (1926)
Month to date precipitation 8.00 5.02  
Year to date precipitation 41.81 36.58  
Sea Level Pressure  
Sea Level Pressure 30.18 in    
Wind  
Wind Speed 3 mph (SE)    
Max Wind Speed 12 mph    
Max Gust Speed 15 mph    
Visibility 7 miles    
Events Fog    
T = Trace of Precipitation, MM = Missing Value Source: NWS Daily Summary

Daily Weather History Graph

Daily Weather History Graph

Search for Another Location

Airport or City:

Trip Planner

Search our weather history database for the weather conditions in past years. The results will help you decide how hot, cold, wet, or windy it might be!

Date:

Astronomy

Aug. 21, 2013 Rise Set
Actual Time 6:37 AM EDT 7:51 PM EDT
Civil Twilight 6:11 AM EDT 8:17 PM EDT
Nautical Twilight 5:39 AM EDT 8:48 PM EDT
Astronomical Twilight 5:07 AM EDT 9:20 PM EDT
Moon 8:04 PM EDT (8/21) 7:10 AM EDT (8/21)
Length of Visible Light 14h 06m
Length of Day
13h 14m
Full, 100% of the Moon is Illuminated
Aug 21
Full
Aug 28
Last Quarter
Sep 5
New
Sep 12
First Quarter
Sep 19
Full

Hourly Weather History & Observations

Time (EDT) Temp. Heat Index Dew Point Humidity Pressure Visibility Wind Dir Wind Speed Gust Speed Precip Events Conditions
12:37 AM 73.4 °F - 73.4 °F 100% 30.19 in 9.0 mi Calm Calm - N/A   Scattered Clouds
12:53 AM 75.0 °F - 73.0 °F 94% 30.19 in 8.0 mi Calm Calm - N/A   Clear
1:53 AM 73.9 °F - 73.0 °F 97% 30.17 in 10.0 mi Calm Calm - N/A   Clear
2:53 AM 73.0 °F - 72.0 °F 96% 30.16 in 10.0 mi Calm Calm - N/A   Clear
3:53 AM 72.0 °F - 71.1 °F 97% 30.17 in 10.0 mi Calm Calm - N/A   Clear
4:44 AM 71.6 °F - 71.6 °F 100% 30.16 in 5.0 mi NNE 3.5 mph - N/A   Scattered Clouds
4:49 AM 71.6 °F - 71.6 °F 100% 30.16 in 1.8 mi NNE 3.5 mph - N/A   Mostly Cloudy
4:53 AM 72.0 °F - 71.1 °F 97% 30.17 in 1.2 mi Calm Calm - N/A   Mostly Cloudy
5:02 AM 71.6 °F - 71.6 °F 100% 30.17 in 0.5 mi Calm Calm - N/A Fog Fog
5:20 AM 71.6 °F - 71.6 °F 100% 30.16 in 0.2 mi Calm Calm - N/A Fog Fog
5:53 AM 72.0 °F - 72.0 °F 100% 30.17 in 0.5 mi Calm Calm - N/A Fog Fog
6:21 AM 71.6 °F - 71.6 °F 100% 30.17 in 0.2 mi NE 3.5 mph - N/A Fog Fog
6:40 AM 71.6 °F - 71.6 °F 100% 30.18 in 0.8 mi Calm Calm - N/A   Mist
6:43 AM 71.6 °F - 71.6 °F 100% 30.18 in 1.5 mi Calm Calm - N/A   Mostly Cloudy
6:46 AM 71.6 °F - 71.6 °F 100% 30.18 in 3.0 mi Calm Calm - N/A   Mostly Cloudy
6:49 AM 71.6 °F - 71.6 °F 100% 30.18 in 1.8 mi Calm Calm - N/A   Scattered Clouds
6:53 AM 72.0 °F - 71.1 °F 97% 30.19 in 0.8 mi Calm Calm - N/A   Mist
7:02 AM 71.6 °F - 71.6 °F 100% 30.19 in 1.2 mi Calm Calm - N/A   Scattered Clouds
7:04 AM 71.6 °F - 71.6 °F 100% 30.19 in 2.5 mi Calm Calm - N/A   Scattered Clouds
7:11 AM 71.6 °F - 71.6 °F 100% 30.19 in 5.0 mi Calm Calm - N/A   Partly Cloudy
7:53 AM 75.9 °F - 73.9 °F 94% 30.21 in 10.0 mi Calm Calm - N/A   Clear
8:53 AM 80.1 °F 85.4 °F 75.9 °F 87% 30.21 in 10.0 mi East 3.5 mph - N/A   Clear
9:53 AM 82.9 °F 89.4 °F 73.9 °F 74% 30.22 in 10.0 mi Calm Calm - N/A   Partly Cloudy
10:44 AM 84.2 °F 90.9 °F 73.4 °F 70% 30.22 in 10.0 mi Calm Calm - N/A   Mostly Cloudy
10:53 AM 84.0 °F 90.2 °F 73.0 °F 69% 30.22 in 10.0 mi Calm Calm - N/A   Mostly Cloudy
11:00 AM 87.8 °F 95.6 °F 73.4 °F 62% 30.22 in 10.0 mi Calm Calm - N/A   Overcast
11:14 AM 86.0 °F 93.4 °F 73.4 °F 66% 30.22 in 10.0 mi West 3.5 mph - N/A   Mostly Cloudy
11:53 AM 84.9 °F 91.4 °F 73.0 °F 67% 30.22 in 10.0 mi Calm Calm - N/A   Partly Cloudy
12:53 PM 84.0 °F 91.9 °F 75.0 °F 74% 30.21 in 10.0 mi ESE 6.9 mph - N/A   Scattered Clouds
1:53 PM 86.0 °F 93.8 °F 73.9 °F 67% 30.19 in 10.0 mi South 5.8 mph - N/A   Scattered Clouds
2:16 PM 84.2 °F 92.3 °F 75.2 °F 74% 30.18 in 10.0 mi SE 9.2 mph - N/A   Mostly Cloudy
2:27 PM 84.2 °F 90.9 °F 73.4 °F 70% 30.18 in 10.0 mi ESE 9.2 mph - N/A   Mostly Cloudy
2:53 PM 86.0 °F 95.1 °F 75.0 °F 70% 30.17 in 10.0 mi ESE 10.4 mph - N/A   Mostly Cloudy
3:20 PM 87.8 °F 95.6 °F 73.4 °F 62% 30.15 in 10.0 mi SSE 8.1 mph - N/A   Scattered Clouds
3:53 PM 87.1 °F 95.4 °F 73.9 °F 65% 30.15 in 10.0 mi South 8.1 mph - N/A   Clear
4:53 PM 86.0 °F 93.0 °F 73.0 °F 65% 30.14 in 10.0 mi SSE 8.1 mph - N/A   Clear
5:53 PM 86.0 °F 93.8 °F 73.9 °F 67% 30.13 in 10.0 mi South 9.2 mph - N/A   Clear
6:53 PM 84.0 °F 91.9 °F 75.0 °F 74% 30.12 in 10.0 mi South 6.9 mph - N/A   Partly Cloudy
7:53 PM 81.0 °F 86.2 °F 73.9 °F 79% 30.13 in 10.0 mi South 3.5 mph - N/A   Clear
8:53 PM 80.1 °F 85.1 °F 75.0 °F 85% 30.16 in 10.0 mi Calm Calm - N/A   Clear
9:53 PM 79.0 °F - 75.0 °F 88% 30.18 in 10.0 mi NW 4.6 mph - N/A   Clear
10:38 PM 77.0 °F - 73.4 °F 89% 30.18 in 10.0 mi North 4.6 mph - N/A   Mostly Cloudy
10:51 PM 75.2 °F - 71.6 °F 89% 30.17 in 10.0 mi Calm Calm - N/A   Scattered Clouds
10:53 PM 75.9 °F - 72.0 °F 87% 30.17 in 10.0 mi Calm Calm - N/A   Scattered Clouds
11:53 PM 73.9 °F - 72.0 °F 93% 30.15 in 10.0 mi Calm Calm - N/A   Clear